Location: Campillo
(40.8621°N, 4.2488°W)
Time: 23:46:00
(UTC+00:00)

SJ-6B - Pass Details

Date: 27 September 2021
Orbit: 508 x 581 km, 97.6° (Epoch: 16 October)

Event Time Altitude Azimuth Distance (km) Brightness Sun altitude
Exits shadow 19:35:56 35° 77° (ENE) 934 3.5 -17.8°
Maximum altitude 19:36:05 36° 72° (ENE) 931 3.5 -17.8°
Drops below altitude 10° 19:39:50 10° 6° (N) 1,886 5.6 -18.5°
Sets 19:42:05 0° 357° (N) 2,779 6.6 -18.9°
